Weather History for K3T5 - July, 2013

Change the Weather History Date:

Sunday, July 7, 2013

  Actual Average (KAUS) Record (KAUS)
Temperature  
Mean Temperature 87 °F 83 °F  
Max Temperature 100 °F 94 °F 104 °F (2005)
Min Temperature 74 °F 71 °F 64 °F (1968)
Degree Days  
Heating Degree Days 0 0  
Month to date heating degree days 0  
Since 1 June heating degree days 0  
Since 1 July heating degree days 0  
Cooling Degree Days 22 18  
Month to date cooling degree days 126  
Year to date cooling degree days 1114  
Since 1 June cooling degree days 607  
Growing Degree Days 37 (Base 50)    
Moisture  
Dew Point 75 °F    
Average Humidity 75    
Maximum Humidity 95    
Minimum Humidity 37    
Precipitation  
Precipitation 0.00 in 0.10 in 2.80 in (1979)
Month to date precipitation 0.71  
Year to date precipitation 18.95  
Snow  
Snow 0.00 in - - ()
Month to date snowfall  
Since 1 June snowfall  
Since 1 July snowfall  
Snow Depth -    
Sea Level Pressure  
Sea Level Pressure 29.92 in    
Wind  
Wind Speed 3 mph (SE)    
Max Wind Speed 16 mph    
Max Gust Speed 23 mph    
Visibility 7 miles    
Events Rain    
T = Trace of Precipitation, MM = Missing Value Source: NWS Daily Summary

Daily Weather History Graph

Daily Weather History Graph

Search for Another Location

Airport or City:

Trip Planner

Search our weather history database for the weather conditions in past years. The results will help you decide how hot, cold, wet, or windy it might be!

Date:

Astronomy

Jul. 07, 2013 Rise Set
Actual Time 6:33 AM CDT 8:32 PM CDT
Civil Twilight 6:06 AM CDT 8:59 PM CDT
Nautical Twilight 5:33 AM CDT 9:32 PM CDT
Astronomical Twilight 4:58 AM CDT 10:07 PM CDT
Moon 6:05 AM CDT (7/7) 8:02 PM CDT (7/7)
Length of Visible Light 14h 53m
Length of Day
13h 58m
Waning Crescent, 0% of the Moon is Illuminated
Jul 7
Waning Crescent
Jul 8
New
Jul 15
First Quarter
Jul 22
Full
Jul 29
Last Quarter

Hourly Weather History & Observations

Time (CDT) Temp. Heat Index Dew Point Humidity Pressure Visibility Wind Dir Wind Speed Gust Speed Precip Events Conditions
12:15 AM 80.2 °F 85.8 °F 76.1 °F 87% 29.90 in 10.0 mi Calm Calm - N/A   Clear
12:35 AM 79.7 °F - 75.7 °F 88% 29.90 in 10.0 mi Calm Calm - N/A   Clear
12:55 AM 79.2 °F - 75.6 °F 89% 29.90 in 10.0 mi Calm Calm - N/A   Clear
1:15 AM 79.3 °F - 75.6 °F 88% 29.90 in 10.0 mi Calm Calm - N/A   Clear
1:35 AM 78.1 °F - 74.8 °F 90% 29.90 in 10.0 mi Calm Calm - N/A   Clear
1:55 AM 77.5 °F - 74.5 °F 90% 29.89 in 10.0 mi Calm Calm - N/A   Clear
2:15 AM 76.3 °F - 74.1 °F 93% 29.89 in 1.0 mi Calm Calm - N/A   Mist
2:35 AM 76.8 °F - 73.9 °F 91% 29.90 in 7.0 mi Calm Calm - N/A   Clear
2:55 AM 76.5 °F - 73.8 °F 91% 29.90 in 10.0 mi Calm Calm - N/A   Clear
3:15 AM 76.3 °F - 73.8 °F 92% 29.91 in 10.0 mi Calm Calm - N/A   Clear
3:35 AM 76.3 °F - 73.8 °F 92% 29.91 in 7.0 mi Calm Calm - N/A Rain Rain
3:55 AM 76.3 °F - 73.9 °F 92% 29.91 in 2.5 mi Calm Calm - N/A   Light Drizzle
4:15 AM 76.6 °F - 74.5 °F 93% 29.91 in 10.0 mi Calm Calm - N/A   Clear
4:35 AM 76.5 °F - 74.3 °F 93% 29.91 in 10.0 mi Calm Calm - N/A   Clear
4:55 AM 75.2 °F - 73.0 °F 93% 29.92 in 10.0 mi Calm Calm - N/A   Clear
5:15 AM 75.4 °F - 73.4 °F 94% 29.91 in 10.0 mi Calm Calm - N/A   Clear
5:35 AM 75.2 °F - 73.4 °F 94% 29.91 in 10.0 mi Calm Calm - N/A   Clear
5:55 AM 74.5 °F - 72.9 °F 95% 29.92 in 10.0 mi Calm Calm - N/A   Scattered Clouds
6:15 AM 74.8 °F - 73.4 °F 95% 29.92 in 10.0 mi Calm Calm - N/A   Mostly Cloudy
7:15 AM 76.3 °F - 74.5 °F 94% 29.93 in 10.0 mi Calm Calm - N/A   Scattered Clouds
7:35 AM 77.5 °F - 75.4 °F 93% 29.93 in 10.0 mi Calm Calm - N/A   Scattered Clouds
7:55 AM 79.0 °F - 76.1 °F 91% 29.94 in 3.0 mi East 4.6 mph - N/A   Overcast
8:35 AM 82.4 °F 91.5 °F 77.9 °F 86% 29.95 in 10.0 mi ESE 4.6 mph - N/A   Clear
9:15 AM 84.6 °F 95.5 °F 77.9 °F 80% 29.96 in 4.0 mi ESE 4.6 mph - N/A   Haze
9:35 AM 86.5 °F 98.3 °F 77.4 °F 74% 29.96 in 3.0 mi East 5.8 mph - N/A   Drizzle
9:55 AM 86.7 °F 97.3 °F 76.5 °F 71% 29.96 in 3.0 mi SSE 4.6 mph - N/A   Heavy Drizzle
1:15 PM 95.2 °F 104.9 °F 73.4 °F 49% 29.93 in 10.0 mi Calm Calm - N/A   Scattered Clouds
1:35 PM 97.3 °F 107.1 °F 73.0 °F 45% 29.92 in 10.0 mi NNW 3.5 mph - N/A   Scattered Clouds
1:55 PM 96.1 °F 106.3 °F 73.4 °F 48% 29.92 in 10.0 mi South 6.9 mph - N/A   Scattered Clouds
2:15 PM 98.6 °F 107.7 °F 72.1 °F 42% 29.91 in 10.0 mi SE 11.5 mph - N/A   Scattered Clouds
2:35 PM 99.3 °F 106.3 °F 69.8 °F 38% 29.91 in 10.0 mi East 9.2 mph 16.1 mph N/A   Clear
2:55 PM 100.6 °F 108.2 °F 70.0 °F 37% 29.90 in 10.0 mi East 10.4 mph - N/A   Clear
3:15 PM 99.9 °F 108.2 °F 70.9 °F 39% 29.88 in 10.0 mi ESE 9.2 mph - N/A   Clear
3:35 PM 99.0 °F 108.5 °F 72.1 °F 42% 29.88 in 10.0 mi ESE 10.4 mph 16.1 mph N/A   Scattered Clouds
3:55 PM 97.0 °F 107.0 °F 73.0 °F 46% 29.88 in 10.0 mi ESE 9.2 mph 17.3 mph N/A   Mostly Cloudy
4:15 PM 96.8 °F 107.3 °F 73.8 °F 47% 29.88 in 7.0 mi ESE 13.8 mph 23.0 mph N/A   Scattered Clouds
4:35 PM 98.4 °F 108.8 °F 73.4 °F 44% 29.88 in 1.5 mi SSE 12.7 mph 20.7 mph N/A   Haze
4:55 PM 99.0 °F 109.3 °F 72.7 °F 43% 29.88 in 0.8 mi SE 8.1 mph 18.4 mph N/A   Haze
5:15 PM 98.4 °F 108.8 °F 73.0 °F 44% 29.88 in 1.8 mi SE 12.7 mph 18.4 mph N/A   Haze
5:35 PM 95.2 °F 107.9 °F 75.6 °F 53% 29.89 in 2.5 mi ESE 13.8 mph 21.9 mph N/A   Haze
5:55 PM 95.2 °F 106.4 °F 74.7 °F 51% 29.89 in 2.0 mi SE 15.0 mph 21.9 mph N/A   Haze
6:15 PM 93.7 °F 107.9 °F 76.8 °F 58% 29.90 in 2.5 mi SSE 16.1 mph 23.0 mph N/A   Haze
6:35 PM 89.1 °F 100.2 °F 76.1 °F 65% 29.92 in 4.0 mi SSE 16.1 mph 21.9 mph N/A   Haze
6:55 PM 86.9 °F 99.3 °F 77.9 °F 74% 29.93 in 10.0 mi SSE 16.1 mph 21.9 mph N/A   Clear
7:15 PM 86.4 °F 99.9 °F 78.8 °F 78% 29.93 in 10.0 mi SSE 11.5 mph 16.1 mph N/A   Clear
7:35 PM 86.0 °F 99.8 °F 79.2 °F 80% 29.93 in 10.0 mi SSE 12.7 mph 17.3 mph N/A   Clear
7:55 PM 86.0 °F 98.8 °F 78.3 °F 78% 29.93 in 10.0 mi SSE 13.8 mph 19.6 mph N/A   Clear
8:15 PM 85.5 °F 97.7 °F 78.3 °F 79% 29.93 in 7.0 mi SSE 10.4 mph - N/A   Clear
8:35 PM 84.4 °F 95.0 °F 77.5 °F 80% 29.93 in 7.0 mi SSE 10.4 mph 17.3 mph N/A   Clear
8:55 PM 83.8 °F 93.9 °F 77.5 °F 81% 29.94 in 10.0 mi SSE 8.1 mph - N/A   Clear
9:15 PM 83.3 °F 93.1 °F 77.5 °F 83% 29.94 in 10.0 mi SSE 5.8 mph - N/A   Clear
9:35 PM 83.3 °F 93.1 °F 77.5 °F 83% 29.95 in 2.0 mi SSE 5.8 mph - N/A   Haze
9:55 PM 82.9 °F 92.8 °F 77.9 °F 85% 29.95 in 0.8 mi SE 4.6 mph - N/A Rain Light Rain
10:15 PM 82.6 °F 92.0 °F 77.9 °F 86% 29.96 in 0.5 mi SE 3.5 mph - N/A   Haze
10:35 PM 82.4 °F 91.5 °F 77.9 °F 86% 29.96 in 1.0 mi SE 3.5 mph - N/A   Light Drizzle
10:55 PM 81.9 °F 90.2 °F 77.5 °F 87% 29.97 in 2.0 mi Calm Calm - N/A   Clear
11:15 PM 81.7 °F 89.7 °F 77.4 °F 87% 29.97 in 2.5 mi SE 3.5 mph - N/A   Haze
11:35 PM 81.5 °F 89.2 °F 77.2 °F 87% 29.98 in 10.0 mi SSE 5.8 mph - N/A   Clear
11:55 PM 80.8 °F 87.4 °F 77.0 °F 88% 29.99 in 10.0 mi SE 4.6 mph - N/A   Clear